SCP
0 0 0 0 0 -0 -0 -0 -0 -0 -0 -0 0 0 0 0 0 0 0 0 0 0 0 0 0 0 0 0 0 0 0 0 0 0 0 0 -0 0 0 0 0 0 -0
0 0 0 0 0 -0 -0 -0 -0 -0 -0 -0 -0 0 0 0 0 0 0 0 0 0 0 -0 0 0 0 0 0 0 0 0 0 0 0 0 0 0 0 0 0 0 0
0 0 0 0 0 0 0 0 -0 0 0 0 -0 -0 -0 0 0 0 0 0 0 0 0 0 0 0 0 0 0 0 0 0 0 0 0 0 0 0 0 0 0 0 0
0 0 0 0 0 0 0 0 0 0 0 0 0 0 0 0 0 0 0 0 0 0 0 0 0 0 0 0 0 0 0 0 0 0 0 0 0 0 0 0 0 0 0
0 0 0 0 0 0 0 0 0 0 0 0 0 0 0 0 0 0 0 0 0 0 0 0 0 0 0 0 0 0 0 0 0 0 0 0 0 0 0 0 0 0 0
0 0 0 0 0 0 0 0 0 0 0 0 0 0 0 0 0 0 0 0 0 0 0 0 0 0 0 0 0 0 0 0 0 0 0 0 0 0 0 0 0 0 0
0 0 0 0 0 0 0 0 0 0 0 0 0 0 0 0 0 0 0 0 0 0 0 0 0 0 0 0 0 0 0 0 0 0 0 0 0 0 0 0 0 0 0
0 0 0 0 0 0 0 0 0 0 0 0 0 0 0 0 0 0 0 0 0 0 0 0 0 0 0 0 0 0 0 0 0 0 0 0 0 0 0 0 0 0 0
0 0 0 0 0 0 0 0 0 0 0 0 0 0 0 0 0 0 0 0 0 0 0 0 0 0 0 0 0 0 0 0 0 0 0 0 0 0 0 0 0 0 0
0 0 0 0 0 0 0 0 0 0 0 0 0 0 0 0 0 0 0 0 0 0 0 0 0 0 0 0 0 0 0 0 0 0 0 0 0 0 0 0 0 0 0
0 0 0 0 0 0 0 0 0 0 0 0 0 0 0 0 0 0 0 0 0 0 0 0 0 0 0 0 0 0 0 0 0 0 0 0 0 0 0 0 0 0 0
0 0 0 0 0 0 0 0 0 0 0 0 0 0 0 0 0 0 0 0 0 0 0 0 0 0 0 0 0 0 0 0 0 1 0 0 0 0 0 0 0 0 0
0 0 0 0 0 0 0 0 0 0 0 0 0 0 0 0 0 0 0 0 0 0 0 0 0 0 0 0 0 0 1 0 1 1 0 0 0 0 0 0 0 0 0
0 0 0 0 0 0 0 0 0 0 0 0 0 0 0 0 0 0 0 0 0 0 0 0 0 0 0 0 0 0 0 1 1 1 0 0 0 0 0 0 0 0 0
0 0 0 0 0 0 0 0 0 0 0 0 0 0 0 0 0 0 0 0 0 0 0 0 0 0 0 0 0 0 1 1 1 1 1 0 0 0 0 0 0 0 0
0 0 0 0 0 0 0 0 0 0 0 0 0 0 0 0 0 0 0 0 0 0 0 0 0 0 0 0 0 0 0 1 1 1 1 0 0 0 0 0 0 0 0
0 0 0 0 0 0 0 0 0 0 -0 -0 0 0 0 0 0 0 0 0 0 0 0 0 0 0 0 0 0 0 0 0 1 1 1 1 0 0 0 0 0 0 0
0 0 0 0 0 0 0 0 0 -0 -0 -0 0 0 0 0 0 0 0 0 0 0 0 0 0 0 0 0 0 0 0 0 0 1 1 0 0 0 0 0 0 0 1
0 0 0 0 0 0 0 0 0 0 -0 0 0 0 0 0 0 0 0 0 0 0 0 0 0 0 0 0 0 0 0 0 0 0 0 0 0 0 0 0 0 0 0
0 0 0 0 0 0 0 0 0 0 0 0 0 0 0 0 0 0 0 0 0 0 0 0 0 0 0 0 0 0 0 0 0 0 0 0 0 0 0 0 0 0 0
0 0 0 0 0 0 0 0 0 0 0 0 0 0 0 0 0 0 0 0 0 0 0 0 0 0 0 0 0 0 0 0 0 0 0 0 0 0 0 0 0 0 0
0 0 0 0 0 0 0 0 0 0 0 0 0 0 0 0 0 0 0 0 0 0 0 0 0 0 0 0 0 0 0 0 0 0 0 0 0 0 0 0 0 0 0
0 0 0 0 0 0 0 0 0 0 0 0 0 0 0 0 0 0 0 0 0 0 0 0 0 0 0 0 0 0 0 0 0 0 0 0 0 0 0 0 0 0 0
0 0 0 0 0 0 0 0 0 0 0 0 0 0 0 0 0 0 0 0 0 0 0 0 0 0 0 0 0 0 0 0 0 0 0 0 0 0 0 0 0 0 0
0 0 0 0 0 0 0 0 0 0 0 0 0 0 0 0 0 0 0 0 0 0 0 0 0 0 0 0 0 0 0 0 0 0 0 0 0 0 0 0 0 0 0
0 0 0 0 0 0 0 0 0 0 0 0 0 0 0 0 0 0 0 0 0 0 0 0 0 0 0 0 0 0 0 0 0 0 0 0 0 0 0 0 0 0 0
Wind_Speed_500mb
20 14 12 11 11 10 11 6 10 8 11 11 5 12 18 17 20 21 21 24 29 27 27 30 32 33 34 37 34 33 31 28 27 23 19 16 14 16 22 30 34 32 37
24 17 12 11 10 11 10 8 8 5 4 8 7 7 14 20 20 20 25 23 29 30 29 31 33 34 35 37 35 33 31 31 30 25 21 17 14 16 24 30 35 33 36
25 20 13 8 6 8 9 10 9 6 6 7 5 12 12 14 22 21 23 24 28 32 34 33 35 36 37 36 36 34 34 36 35 28 23 18 15 15 22 32 34 34 35
25 19 13 5 1 4 7 10 12 14 13 11 11 6 12 22 17 21 24 27 27 33 36 35 35 38 38 40 40 38 39 39 38 34 28 24 19 17 20 30 37 36 34
24 17 12 6 6 10 13 15 16 17 20 20 17 15 10 15 21 22 24 30 32 32 38 39 38 38 40 42 43 42 42 40 41 40 31 29 26 22 22 26 34 38 37
22 17 13 11 12 16 17 19 22 24 24 24 25 24 21 18 19 26 28 24 33 37 37 43 43 42 41 43 46 45 44 42 43 45 37 34 31 27 25 26 31 40 41
23 19 16 15 17 21 24 25 27 29 31 31 30 29 28 29 27 24 28 31 33 39 44 45 46 46 45 46 47 48 48 47 47 43 41 43 39 33 30 29 33 39 44
24 21 20 20 22 25 29 31 33 34 35 35 35 35 33 33 36 34 30 30 38 41 43 46 50 51 51 50 49 52 53 53 52 46 47 49 46 38 36 34 35 39 46
26 24 22 22 26 31 34 34 32 31 30 30 32 33 35 36 40 43 40 38 38 43 47 50 50 52 54 55 53 53 55 58 59 56 54 56 53 44 41 40 38 42 48
26 23 22 25 29 33 35 35 34 31 30 31 32 34 35 36 39 44 48 47 44 48 48 53 55 54 55 55 56 56 56 58 62 65 61 64 58 49 46 46 43 43 50
27 24 24 25 29 31 33 34 34 34 32 30 32 35 37 39 41 42 46 51 52 50 51 52 54 58 60 60 61 62 60 63 65 71 71 69 61 55 52 51 49 46 50
30 27 26 27 27 30 33 33 31 29 29 32 34 34 36 40 43 46 48 49 55 57 55 55 55 55 57 64 66 65 66 70 70 74 76 75 64 61 58 56 54 51 52
32 29 27 27 28 29 29 28 29 31 32 32 34 38 40 40 43 46 49 52 53 56 61 62 59 59 62 63 63 67 69 73 76 80 80 79 69 67 64 62 59 58 57
32 31 29 29 31 30 27 27 30 32 35 38 41 42 42 46 48 48 50 52 53 56 57 63 66 63 64 68 68 69 73 74 75 82 86 83 75 73 69 68 65 64 63
35 33 32 32 32 31 31 33 37 41 44 45 47 49 50 49 49 52 54 54 55 56 58 60 64 68 67 66 68 71 76 77 81 81 86 89 82 76 75 72 71 68 69
38 35 34 36 36 34 34 37 43 49 54 56 54 52 51 53 55 54 53 56 55 55 57 60 62 65 71 69 68 68 79 76 81 87 89 91 87 81 83 79 74 74 75
40 39 38 40 40 39 39 42 47 55 61 62 60 57 54 51 50 52 53 52 54 56 56 59 60 62 67 72 73 68 66 68 71 76 91 92 101 89 88 84 79 78 77
44 43 42 42 43 43 44 47 52 60 68 68 63 58 53 49 47 47 49 51 50 55 57 56 56 57 60 65 70 71 73 75 57 68 79 89 95 93 97 96 91 80 78
46 46 45 44 44 45 48 51 56 65 68 63 57 54 50 46 44 47 49 49 49 52 55 54 53 52 53 55 61 65 70 74 75 62 72 80 98 100 92 104 92 80 76
44 44 43 42 44 46 51 56 62 65 62 55 49 45 45 46 46 46 47 48 46 49 52 53 52 49 48 49 48 56 70 70 75 77 69 61 94 84 87 89 91 96 92
41 41 41 41 45 48 53 59 65 63 54 48 45 44 43 44 45 46 48 46 43 41 43 51 53 51 50 41 45 51 67 68 66 72 81 72 70 85 89 86 84 107 90
37 37 38 42 45 50 57 60 58 53 49 47 46 44 44 45 46 48 47 45 41 35 41 43 47 51 46 37 40 39 44 46 64 66 68 69 67 77 96 80 100 91 84
29 32 35 40 47 53 55 51 47 45 42 40 38 44 46 45 45 46 46 42 38 35 39 41 38 39 44 44 42 46 33 45 38 55 59 65 70 73 80 81 89 96 85
25 30 37 43 47 47 45 42 42 41 40 38 42 41 44 46 44 40 38 39 35 37 42 43 38 39 42 46 43 56 65 46 19 20 44 55 64 70 82 88 83 96 102
29 34 41 43 41 40 39 38 38 38 37 39 38 39 38 39 41 37 35 44 45 46 42 45 46 45 45 49 52 47 50 60 54 46 17 42 61 71 75 82 84 90 88
33 35 37 37 36 36 36 35 35 36 37 38 36 38 38 37 38 37 37 42 49 43 43 45 45 46 47 51 56 55 50 42 42 53 50 47 52 59 64 71 80 83 83
Wind_Direction_500mb
155 139 113 99 90 79 84 99 131 169 187 170 156 193 194 205 215 222 232 230 227 227 224 211 211 212 205 201 200 197 192 187 181 176 166 151 152 158 163 165 162 160 166
160 147 128 105 78 79 74 76 63 51 82 231 234 220 216 218 209 218 224 230 225 224 229 218 216 217 212 208 206 207 202 197 192 188 179 165 156 158 168 172 171 178 176
163 156 153 131 92 56 51 26 22 20 332 341 251 251 257 244 233 216 218 219 222 225 226 225 221 221 219 219 215 215 210 206 204 200 191 184 172 166 176 177 180 176 183
171 173 170 167 75 3 356 352 342 331 328 321 311 314 278 264 250 237 223 212 220 223 225 233 227 225 224 222 223 219 217 214 213 209 202 194 193 187 188 192 192 195 196
182 190 196 218 289 316 320 322 321 317 310 304 298 294 277 278 263 248 239 228 218 222 225 232 236 233 228 226 225 227 223 220 217 214 207 206 202 204 202 202 204 203 201
191 205 224 250 282 300 308 309 307 306 302 298 293 286 279 269 267 258 246 238 236 229 229 229 232 236 237 237 234 231 228 226 222 219 214 216 212 217 217 213 210 212 209
208 226 249 270 286 295 300 304 303 299 295 291 287 281 273 269 262 261 261 247 240 242 239 237 237 234 235 239 239 236 233 230 227 218 221 223 224 226 227 224 222 217 216
219 233 249 268 283 292 297 300 300 299 294 289 282 277 272 265 263 259 255 254 245 242 245 245 242 242 238 235 236 238 240 234 231 223 226 229 231 232 233 231 228 227 220
223 239 259 277 289 297 301 304 305 301 297 291 288 280 272 267 260 258 257 251 249 245 244 244 246 245 245 242 238 231 236 238 238 232 231 232 234 235 237 239 234 231 226
231 243 258 279 292 301 306 309 310 305 300 296 291 286 282 274 267 261 258 257 254 251 249 248 245 246 247 244 241 237 234 236 237 239 234 236 237 238 240 242 241 235 229
234 244 264 282 296 304 307 308 306 303 301 297 292 289 285 280 275 269 263 260 258 253 252 250 249 247 248 247 243 242 240 235 233 238 238 239 239 240 241 242 243 238 231
236 250 269 282 291 298 301 303 303 302 300 297 295 291 286 283 279 274 270 264 260 258 255 252 250 252 251 250 249 246 244 240 236 235 239 241 240 242 243 242 243 240 232
240 257 269 277 284 290 292 293 296 299 300 300 298 295 291 286 283 281 276 270 266 261 258 257 256 252 253 253 251 251 246 243 239 237 236 240 242 243 244 243 242 242 234
246 255 260 272 284 291 296 301 303 302 297 295 295 295 293 290 287 282 279 277 272 267 262 257 256 256 254 253 253 250 250 245 243 240 239 236 235 242 243 243 242 240 237
245 253 264 275 279 284 293 304 309 310 308 303 298 295 294 291 288 285 280 276 273 271 268 264 259 255 255 253 252 250 248 249 245 243 241 241 236 239 243 242 243 239 236
246 251 264 274 277 282 293 305 313 315 313 309 304 298 291 288 287 285 281 278 275 271 269 267 264 261 256 255 253 252 253 250 249 245 243 243 243 242 241 241 241 240 235
243 251 261 270 273 278 289 301 311 316 316 311 305 301 297 291 283 279 280 278 277 274 271 269 268 265 263 257 255 251 249 239 251 248 246 247 246 243 245 239 240 239 237
247 250 258 266 270 278 289 299 308 314 316 311 305 301 298 293 287 281 278 278 276 276 276 273 270 268 265 263 259 256 251 254 252 252 251 247 251 248 244 239 232 233 236
245 250 256 264 272 280 288 297 305 311 312 307 301 300 298 293 287 284 282 279 278 276 274 274 272 270 268 264 263 260 254 249 250 253 249 256 250 252 245 240 227 223 231
245 250 257 268 276 285 292 299 305 309 309 303 297 293 291 290 288 284 281 280 278 276 273 272 272 268 269 267 265 261 257 254 249 247 251 254 248 251 251 250 235 233 221
245 251 260 272 282 290 296 302 303 306 304 297 291 288 287 284 282 282 280 277 274 275 274 272 271 272 269 267 268 267 261 257 254 252 250 251 246 241 243 242 240 231 234
244 254 267 278 287 293 298 301 303 304 303 299 297 295 292 287 281 280 277 275 272 268 270 274 273 273 269 262 253 262 262 261 251 256 254 248 251 250 240 256 241 238 230
255 268 278 284 287 294 300 304 305 303 301 300 299 297 293 287 280 276 275 275 268 268 272 273 273 269 267 266 246 240 251 249 257 249 249 245 237 235 241 239 243 236 240
272 277 279 288 298 302 304 304 302 300 301 298 296 295 292 290 285 280 271 261 260 265 272 277 271 263 250 259 259 245 242 254 245 250 233 235 237 234 230 230 231 238 240
276 282 290 296 301 303 302 299 299 302 300 304 303 298 295 290 286 283 269 257 257 261 265 271 269 261 254 252 249 253 251 247 250 253 278 246 236 231 229 234 239 239 242
286 292 296 302 302 298 297 302 303 302 305 305 306 302 301 298 295 288 281 269 262 255 259 267 265 254 252 252 250 247 249 247 247 243 255 259 237 229 226 228 232 237 241
Wind_Speed_850mb
20 14 12 11 11 10 11 6 10 8 11 11 5 12 18 17 20 21 21 24 29 27 27 30 32 33 34 37 34 33 31 28 27 23 19 16 14 16 22 30 34 32 37
24 17 12 11 10 11 10 8 8 5 4 8 7 7 14 20 20 20 25 23 29 30 29 31 33 34 35 37 35 33 31 31 30 25 21 17 14 16 24 30 35 33 36
25 20 13 8 6 8 9 10 9 6 6 7 5 12 12 14 22 21 23 24 28 32 34 33 35 36 37 36 36 34 34 36 35 28 23 18 15 15 22 32 34 34 35
25 19 13 5 1 4 7 10 12 14 13 11 11 6 12 22 17 21 24 27 27 33 36 35 35 38 38 40 40 38 39 39 38 34 28 24 19 17 20 30 37 36 34
24 17 12 6 6 10 13 15 16 17 20 20 17 15 10 15 21 22 24 30 32 32 38 39 38 38 40 42 43 42 42 40 41 40 31 29 26 22 22 26 34 38 37
22 17 13 11 12 16 17 19 22 24 24 24 25 24 21 18 19 26 28 24 33 37 37 43 43 42 41 43 46 45 44 42 43 45 37 34 31 27 25 26 31 40 41
23 19 16 15 17 21 24 25 27 29 31 31 30 29 28 29 27 24 28 31 33 39 44 45 46 46 45 46 47 48 48 47 47 43 41 43 39 33 30 29 33 39 44
24 21 20 20 22 25 29 31 33 34 35 35 35 35 33 33 36 34 30 30 38 41 43 46 50 51 51 50 49 52 53 53 52 46 47 49 46 38 36 34 35 39 46
26 24 22 22 26 31 34 34 32 31 30 30 32 33 35 36 40 43 40 38 38 43 47 50 50 52 54 55 53 53 55 58 59 56 54 56 53 44 41 40 38 42 48
26 23 22 25 29 33 35 35 34 31 30 31 32 34 35 36 39 44 48 47 44 48 48 53 55 54 55 55 56 56 56 58 62 65 61 64 58 49 46 46 43 43 50
27 24 24 25 29 31 33 34 34 34 32 30 32 35 37 39 41 42 46 51 52 50 51 52 54 58 60 60 61 62 60 63 65 71 71 69 61 55 52 51 49 46 50
30 27 26 27 27 30 33 33 31 29 29 32 34 34 36 40 43 46 48 49 55 57 55 55 55 55 57 64 66 65 66 70 70 74 76 75 64 61 58 56 54 51 52
32 29 27 27 28 29 29 28 29 31 32 32 34 38 40 40 43 46 49 52 53 56 61 62 59 59 62 63 63 67 69 73 76 80 80 79 69 67 64 62 59 58 57
32 31 29 29 31 30 27 27 30 32 35 38 41 42 42 46 48 48 50 52 53 56 57 63 66 63 64 68 68 69 73 74 75 82 86 83 75 73 69 68 65 64 63
35 33 32 32 32 31 31 33 37 41 44 45 47 49 50 49 49 52 54 54 55 56 58 60 64 68 67 66 68 71 76 77 81 81 86 89 82 76 75 72 71 68 69
38 35 34 36 36 34 34 37 43 49 54 56 54 52 51 53 55 54 53 56 55 55 57 60 62 65 71 69 68 68 79 76 81 87 89 91 87 81 83 79 74 74 75
40 39 38 40 40 39 39 42 47 55 61 62 60 57 54 51 50 52 53 52 54 56 56 59 60 62 67 72 73 68 66 68 71 76 91 92 101 89 88 84 79 78 77
44 43 42 42 43 43 44 47 52 60 68 68 63 58 53 49 47 47 49 51 50 55 57 56 56 57 60 65 70 71 73 75 57 68 79 89 95 93 97 96 91 80 78
46 46 45 44 44 45 48 51 56 65 68 63 57 54 50 46 44 47 49 49 49 52 55 54 53 52 53 55 61 65 70 74 75 62 72 80 98 100 92 104 92 80 76
44 44 43 42 44 46 51 56 62 65 62 55 49 45 45 46 46 46 47 48 46 49 52 53 52 49 48 49 48 56 70 70 75 77 69 61 94 84 87 89 91 96 92
41 41 41 41 45 48 53 59 65 63 54 48 45 44 43 44 45 46 48 46 43 41 43 51 53 51 50 41 45 51 67 68 66 72 81 72 70 85 89 86 84 107 90
37 37 38 42 45 50 57 60 58 53 49 47 46 44 44 45 46 48 47 45 41 35 41 43 47 51 46 37 40 39 44 46 64 66 68 69 67 77 96 80 100 91 84
29 32 35 40 47 53 55 51 47 45 42 40 38 44 46 45 45 46 46 42 38 35 39 41 38 39 44 44 42 46 33 45 38 55 59 65 70 73 80 81 89 96 85
25 30 37 43 47 47 45 42 42 41 40 38 42 41 44 46 44 40 38 39 35 37 42 43 38 39 42 46 43 56 65 46 19 20 44 55 64 70 82 88 83 96 102
29 34 41 43 41 40 39 38 38 38 37 39 38 39 38 39 41 37 35 44 45 46 42 45 46 45 45 49 52 47 50 60 54 46 17 42 61 71 75 82 84 90 88
33 35 37 37 36 36 36 35 35 36 37 38 36 38 38 37 38 37 37 42 49 43 43 45 45 46 47 51 56 55 50 42 42 53 50 47 52 59 64 71 80 83 83
Wind_Direction_850mb
155 139 113 99 90 79 84 99 131 169 187 170 156 193 194 205 215 222 232 230 227 227 224 211 211 212 205 201 200 197 192 187 181 176 166 151 152 158 163 165 162 160 166
160 147 128 105 78 79 74 76 63 51 82 231 234 220 216 218 209 218 224 230 225 224 229 218 216 217 212 208 206 207 202 197 192 188 179 165 156 158 168 172 171 178 176
163 156 153 131 92 56 51 26 22 20 332 341 251 251 257 244 233 216 218 219 222 225 226 225 221 221 219 219 215 215 210 206 204 200 191 184 172 166 176 177 180 176 183
171 173 170 167 75 3 356 352 342 331 328 321 311 314 278 264 250 237 223 212 220 223 225 233 227 225 224 222 223 219 217 214 213 209 202 194 193 187 188 192 192 195 196
182 190 196 218 289 316 320 322 321 317 310 304 298 294 277 278 263 248 239 228 218 222 225 232 236 233 228 226 225 227 223 220 217 214 207 206 202 204 202 202 204 203 201
191 205 224 250 282 300 308 309 307 306 302 298 293 286 279 269 267 258 246 238 236 229 229 229 232 236 237 237 234 231 228 226 222 219 214 216 212 217 217 213 210 212 209
208 226 249 270 286 295 300 304 303 299 295 291 287 281 273 269 262 261 261 247 240 242 239 237 237 234 235 239 239 236 233 230 227 218 221 223 224 226 227 224 222 217 216
219 233 249 268 283 292 297 300 300 299 294 289 282 277 272 265 263 259 255 254 245 242 245 245 242 242 238 235 236 238 240 234 231 223 226 229 231 232 233 231 228 227 220
223 239 259 277 289 297 301 304 305 301 297 291 288 280 272 267 260 258 257 251 249 245 244 244 246 245 245 242 238 231 236 238 238 232 231 232 234 235 237 239 234 231 226
231 243 258 279 292 301 306 309 310 305 300 296 291 286 282 274 267 261 258 257 254 251 249 248 245 246 247 244 241 237 234 236 237 239 234 236 237 238 240 242 241 235 229
234 244 264 282 296 304 307 308 306 303 301 297 292 289 285 280 275 269 263 260 258 253 252 250 249 247 248 247 243 242 240 235 233 238 238 239 239 240 241 242 243 238 231
236 250 269 282 291 298 301 303 303 302 300 297 295 291 286 283 279 274 270 264 260 258 255 252 250 252 251 250 249 246 244 240 236 235 239 241 240 242 243 242 243 240 232
240 257 269 277 284 290 292 293 296 299 300 300 298 295 291 286 283 281 276 270 266 261 258 257 256 252 253 253 251 251 246 243 239 237 236 240 242 243 244 243 242 242 234
246 255 260 272 284 291 296 301 303 302 297 295 295 295 293 290 287 282 279 277 272 267 262 257 256 256 254 253 253 250 250 245 243 240 239 236 235 242 243 243 242 240 237
245 253 264 275 279 284 293 304 309 310 308 303 298 295 294 291 288 285 280 276 273 271 268 264 259 255 255 253 252 250 248 249 245 243 241 241 236 239 243 242 243 239 236
246 251 264 274 277 282 293 305 313 315 313 309 304 298 291 288 287 285 281 278 275 271 269 267 264 261 256 255 253 252 253 250 249 245 243 243 243 242 241 241 241 240 235
243 251 261 270 273 278 289 301 311 316 316 311 305 301 297 291 283 279 280 278 277 274 271 269 268 265 263 257 255 251 249 239 251 248 246 247 246 243 245 239 240 239 237
247 250 258 266 270 278 289 299 308 314 316 311 305 301 298 293 287 281 278 278 276 276 276 273 270 268 265 263 259 256 251 254 252 252 251 247 251 248 244 239 232 233 236
245 250 256 264 272 280 288 297 305 311 312 307 301 300 298 293 287 284 282 279 278 276 274 274 272 270 268 264 263 260 254 249 250 253 249 256 250 252 245 240 227 223 231
245 250 257 268 276 285 292 299 305 309 309 303 297 293 291 290 288 284 281 280 278 276 273 272 272 268 269 267 265 261 257 254 249 247 251 254 248 251 251 250 235 233 221
245 251 260 272 282 290 296 302 303 306 304 297 291 288 287 284 282 282 280 277 274 275 274 272 271 272 269 267 268 267 261 257 254 252 250 251 246 241 243 242 240 231 234
244 254 267 278 287 293 298 301 303 304 303 299 297 295 292 287 281 280 277 275 272 268 270 274 273 273 269 262 253 262 262 261 251 256 254 248 251 250 240 256 241 238 230
255 268 278 284 287 294 300 304 305 303 301 300 299 297 293 287 280 276 275 275 268 268 272 273 273 269 267 266 246 240 251 249 257 249 249 245 237 235 241 239 243 236 240
272 277 279 288 298 302 304 304 302 300 301 298 296 295 292 290 285 280 271 261 260 265 272 277 271 263 250 259 259 245 242 254 245 250 233 235 237 234 230 230 231 238 240
276 282 290 296 301 303 302 299 299 302 300 304 303 298 295 290 286 283 269 257 257 261 265 271 269 261 254 252 249 253 251 247 250 253 278 246 236 231 229 234 239 239 242
286 292 296 302 302 298 297 302 303 302 305 305 306 302 301 298 295 288 281 269 262 255 259 267 265 254 252 252 250 247 249 247 247 243 255 259 237 229 226 228 232 237 241